Regional Weather Roundup
Issued by NWS

Home | Current Version | Previous Version | Graphics & Text | Print | Product List | Glossary Off
Versions: 1 2 3 4 5 6 7 8 9 10 11 12 13 14 15 16 17 18 19 20 21 22 23 24 25 26 27 28 29 30 31 32 33 34 35 36 37 38 39 40 41 42 43 44 45 46 47 48 49 50

000
ASUS43 KOAX 211310
RWRNE

WEATHER ROUNDUP FOR NEBRASKA
NATIONAL WEATHER SERVICE OMAHA NE
800 AM CDT FRI JUL 21 2017

NOTES: SATELLITE DATA IS BEING USED TO AUGMENT CLOUD COVER ABOVE
       12000 FEET.
       "FAIR" INDICATES FEW OR NO CLOUDS BELOW 12,000 FEET WITH NO
       SIGNIFICANT WEATHER AND/OR OBSTRUCTIONS TO VISIBILITY.


NEZ001>004-019>022-054>056-211400-
NEBRASKA PANHANDLE

CITY           SKY/WX    TMP DP  RH WIND       PRES   REMARKS
SCOTTSBLUFF    CLOUDY    69  61  75 SE3       30.00R
ALLIANCE       CLOUDY    67  60  78 NW5       29.99R
CHADRON        CLOUDY    67  62  84 S3        29.94R
GORDON         FAIR      69  66  88 CALM      29.93R
KIMBALL        CLOUDY    65  57  74 W9        30.05S
SIDNEY         SUNNY     71  56  58 W6        30.02S
$$

NEZ057>060-069>072-079>082-211400-
SOUTHWEST NEBRASKA

CITY           SKY/WX    TMP DP  RH WIND       PRES   REMARKS
NORTH PLATTE   MOSUNNY   74  72  93 CALM      29.87F FOG
IMPERIAL       SUNNY     73  66  78 W7        29.93R
LEXINGTON      SUNNY     75  63  64 S6        29.86R
MCCOOK         SUNNY     74  61  63 SW7       29.87S
OGALLALA       SUNNY     72  67  86 W5        29.93R
$$

NEZ005>010-023>029-035>040-094-211400-
NORTH CENTRAL NEBRASKA

CITY           SKY/WX    TMP DP  RH WIND       PRES   REMARKS
VALENTINE      CLOUDY    73  66  78 W5        29.84F
AINSWORTH      CLOUDY    73  71  95 CALM      29.85F
BROKEN BOW     CLOUDY    75  65  70 N5        29.87R
O`NEILL        PTSUNNY   75  72  89 NE3       29.81S
ORD            SUNNY     75  63  66 S6        29.82F
THEDFORD       CLOUDY    73  73  97 N7        29.90R FOG
$$

NEZ041-046>049-061>064-073>077-083>087-211400-
SOUTH CENTRAL NEBRASKA

CITY           SKY/WX    TMP DP  RH WIND       PRES   REMARKS
GRAND ISLAND   SUNNY     80  64  58 S17G26    29.83R
AURORA         SUNNY     78  64  61 S15G24    29.83F
HASTINGS       SUNNY     78  62  57 S13       29.86F
HEBRON         SUNNY     82  67  60 S13       29.87S
HOLDREGE       SUNNY     76  59  56 S13G18    29.87R
KEARNEY        SUNNY     78  63  59 S14G21    29.86R
YORK           SUNNY     77  66  69 S14       29.83F
$$

NEZ011>018-030>034-042>045-211400-
NORTHEAST NEBRASKA

CITY           SKY/WX    TMP DP  RH WIND       PRES   REMARKS
NORFOLK        LGT RAIN  78  65  63 S9        29.82R
ALBION         SUNNY     77  66  68 CALM      29.83S
BLAIR          CLOUDY    80  70  71 S10       29.84S
COLUMBUS       PTSUNNY   82  66  58 SW14      29.81F
FREMONT        SUNNY     82  67  59 S13G20    29.82F
TEKAMAH        MOSUNNY   80  71  74 SE5       29.82F
WAYNE          MOSUNNY   78  77  98 E10       29.83F
$$

NEZ050>053-065>068-078-088>093-211400-
SOUTHEAST NEBRASKA

CITY           SKY/WX    TMP DP  RH WIND       PRES   REMARKS
LINCOLN        MOSUNNY   82  68  62 SW10G18   29.84F
OMAHA EPPLEY   CLOUDY    83  71  67 SE13      29.84S
BEATRICE       SUNNY     82  70  66 S8        29.87F
FALLS CITY     SUNNY     80  72  76 S8        29.89S
NEBRASKA CITY  PTSUNNY   80  74  81 SW12      29.87F
PLATTSMOUTH    CLOUDY    80  70  70 S12       29.86S
$$

NEZ044-045-051>053-067-211400-
OMAHA AREA

CITY           SKY/WX    TMP DP  RH WIND       PRES   REMARKS
OMAHA EPPLEY   CLOUDY    83  71  67 SE13      29.84S
BLAIR          CLOUDY    80  70  71 S10       29.84S
FREMONT        SUNNY     82  67  59 S13G20    29.82F
MILLARD        MOSUNNY   84  72  67 S5        29.84S
OFFUTT AFB     SUNNY     81  71  71 SE7       29.84F
PLATTSMOUTH    CLOUDY    80  70  70 S12       29.86S
WAHOO          FAIR      81  68  64 S10       29.83S
$$




USA.gov is the U.S. government's official web portal to all federal, state and local government web resources and services.